AirNav   Duncan Aviation - Near you to keep you flying
 
 673 users online  

KHIG Higginsville Industrial Municipal Airport
Higginsville, Missouri, USA

GOING TO HIGGINSVILLE?


FAA INFORMATION EFFECTIVE 02 DECEMBER 2021

Location

FAA Identifier: HIG
Lat/Long: 39-04-20.8000N 093-40-38.5000W
39-04.346667N 093-40.641667W
39.0724444,-93.6773611
(estimated)
Elevation: 840 ft. / 256.0 m (surveyed)
Variation: 02E (2005)
From city: 2 miles E of HIGGINSVILLE, MO
Time zone: UTC -6 (UTC -5 during Daylight Saving Time)
Zip code: 64037

Airport Operations

Airport use: Open to the public
Control tower: no
ARTCC: KANSAS CITY CENTER
FSS: COLUMBIA FLIGHT SERVICE STATION
NOTAMs facility: COU (NOTAM-D service available)
Attendance: SEP-APR 0800-1700, MAY-AUG 0700-1900
Wind indicator: lighted
Segmented circle: no
Lights: ACTVT MIRL RY 16/34; PAPI & REIL RYS 16 & 34 - CTAF.
Beacon: white-green (lighted land airport)
Operates sunset to sunrise.

Airport Communications

CTAF/UNICOM: 122.8
WHITEMAN APPROACH: 127.45
WHITEMAN DEPARTURE: 125.925
WX AWOS-3PT at RCM (18 nm S): 119.575 (660-422-7010)
  • APCH/DEP SVC PRVDD BY KANSAS CITY ARTCC ON FREQS 135.575/323.15 (KNOB NOSTER RCAG) WHEN WHITEMAN APCH CTL CLSD.

Nearby radio navigation aids

VOR radial/distance  VOR name  Freq  Var
ANXr087/21.1NAPOLEON VORTAC114.0007E
BQSr162/34.7BRAYMER VOR/DME115.3503E

Airport Services

Fuel available: 100LL
100LL:FOR SVC AFT HRS, CALL NBRS POSTED ON TERMINAL DOOR.
Parking: hangars and tiedowns
Airframe service: MAJOR
Powerplant service: MAJOR
Bottled oxygen: NONE
Bulk oxygen: NONE

Runway Information

Runway 16/34

Dimensions: 4400 x 75 ft. / 1341 x 23 m
Surface: asphalt, in good condition
Weight bearing capacity: 
Single wheel: 12.5
Double wheel: 16.0
Runway edge lights: medium intensity
RUNWAY 16  RUNWAY 34
Latitude: 39-04.698333N39-03.996667N
Longitude: 093-40.758333W093-40.525000W
Elevation: 840.0 ft.796.0 ft.
Traffic pattern: leftleft
Runway heading: 163 magnetic, 165 true343 magnetic, 345 true
Declared distances: TORA:4400 TODA:4400 ASDA:4400 LDA:4400TORA:4400 TODA:4400 ASDA:4400 LDA:4400
Markings: nonprecision, in good conditionnonprecision, in good condition
Visual slope indicator: 4-light PAPI on left (3.00 degrees glide path)4-light PAPI on left (3.00 degrees glide path)
Runway end identifier lights: yesyes
Touchdown point: yes, no lightsyes, no lights
Obstructions: none27 ft. tree, 750 ft. from runway, 320 ft. right of centerline, 20:1 slope to clear

Airport Ownership and Management from official FAA records

Ownership: Publicly-owned
Owner: CITY OF HIGGINSVILLE
1922 MAIN ST BOX 110
HIGGINSVILLE, MO 64037
Phone 660-584-2106
Manager: CITY OF HIGGINSVILLE
11667 AIRPORT ROAD
HIGGINSVILLE, MO 64037
Phone 660-584-3339

Airport Operational Statistics

Aircraft based on the field: 16
Single engine airplanes: 13
Multi engine airplanes: 2
Helicopters: 1
    
Aircraft operations: avg 69/week *
58% transient general aviation
40% local general aviation
1% military
<1% air taxi
* for 12-month period ending 31 December 2020

Additional Remarks

WILDLIFE ON & INVOF ARPT.
EXTENSIVE HELICOPTER OPERATIONS.
FOR CD CTC WHITEMAN APCH AT 660-687-3132. WHEN WHITEMAN APCH IS CLSD, CTC KANSAS CITY ARTCC AT 913-254-8508.

Instrument Procedures

NOTE: All procedures below are presented as PDF files. If you need a reader for these files, you should download the free Adobe Reader.

NOT FOR NAVIGATION. Please procure official charts for flight.
FAA instrument procedures published for use from 02 December 2021 at 0901Z to 30 December 2021 at 0900Z.

 
IAPs - Instrument Approach Procedures
RNAV (GPS) RWY 16   download (224KB)
RNAV (GPS) RWY 34   download (214KB)
NOTE: Special Take-Off Minimums/Departure Procedures apply   download (158KB)

Other nearby airports with instrument procedures:

KRCM - Skyhaven Airport (18 nm S)
KSZL - Whiteman Air Force Base (21 nm S)
KMHL - Marshall Memorial Municipal Airport (22 nm E)
3GV - East Kansas City Airport (25 nm W)
3EX - Excelsior Springs Memorial Airport (29 nm NW)
 
Loc | Ops | Rwys | IFR | FBO | Links
Com | Nav | Svcs | Stats | Notes
Area around KHIG (Higginsville Industrial Municipal Airport)
 
Road maps at: MapQuest Bing Google
 
Aerial photo
WARNING: Photo may not be current or correct
Aerial photo of KHIG (Higginsville Industrial Municipal Airport)
Do you have a better or more recent aerial photo of Higginsville Industrial Municipal Airport that you would like to share? If so, please send us your photo.

 
Sectional chart

 
Airport distance calculator
Flying to Higginsville Industrial Municipal Airport? Find the distance to fly.

From to KHIG

Sunrise and sunset
Times for 03-Dec-2021
 Local
(UTC-6)
 Zulu
(UTC)
Morning civil twilight06:4812:48
Sunrise07:1813:18
Sunset16:5122:51
Evening civil twilight17:2123:21

Current date and time
Zulu (UTC)  03-Dec-2021 07:35:31
Local (UTC-6)  03-Dec-2021 01:35:31
 
METAR
KRCM 
18nm S 
030715Z AUTO 19003KT 10SM CLR 11/05 A2992 RMK AO2
KMHL 
22nm E 
030715Z AUTO 17003KT 10SM CLR 08/03 A2994 RMK AO2
KSZL 
22nm S 
030656Z 19009KT 10SM FEW200 09/05 A2989 RMK AO2A SLP123 T00910049 $
KDMO 
32nm SE 
030653Z AUTO 21009KT 10SM CLR 13/04 A2994 RMK AO2 SLP137 T01280039
KLXT 
33nm W 
030653Z AUTO 21008KT 10SM CLR 11/05 A2992 RMK AO2 SLP128 T01110050
KGPH 
33nm NW 
030715Z AUTO 00000KT 10SM CLR 03/01 A2991 RMK AO2
TAF
KSZL 
22nm S 
030300Z 0303/0409 15006KT 9999 SCT250 QNH2988INS WND 02012KT AFT 0319 TX19/0321Z TN08/0312Z
NOTAMs
Click for the latest NOTAMs
NOTAMs are issued by the DoD/FAA and will open in a separate window not controlled by AirNav.

 

 
 

FBO, Fuel Providers, and Aircraft Ground Support

  
 Business Name 
 
 Contact 
 
 Services / Description 
 
Fuel Prices
 
Comments
  
City of Higginsville 660-584-3339
no information available

If you are affiliated with City of Higginsville and would like to show here your services, contact info, web link, logo, and more, click here
100LL
SS $4.59 
 Updated 24-Nov-2021
 
   write
SS=Self service
Update Fuel Prices
 

Would you like to see your business listed on this page?

 If your business provides an interesting product or service to pilots, flight crews, aircraft, or users of the Higginsville Industrial Municipal Airport, you should consider listing it here.  To start the listing process, click on the button below
 
Add a business
 

Other Pages about Higginsville Industrial Municipal Airport

Update a link
 
Copyright © AirNav, LLC. All rights reserved. Privacy Policy  Contact